Regional Weather Roundup
Issued by NWS Boston, MA

Home | Current Version | Previous Version | Text Only | Print | Product List | Glossary On
Versions: 1 2 3 4 5 6 7 8 9 10 11 12 13 14 15 16 17 18 19 20 21 22 23 24 25 26 27 28 29 30 31 32 33 34 35 36 37 38 39 40 41 42 43 44 45 46 47 48 49 50
000
ASUS41 KBOX 231210
RWRBOX

REGIONAL WEATHER ROUNDUP
NATIONAL WEATHER SERVICE TAUNTON MA
800 AM EDT TUE SEP 23 2014

NOTE:  "FAIR" INDICATES FEW OR NO CLOUDS BELOW 12,000 FEET WITH NO
SIGNIFICANT WEATHER AND/OR OBSTRUCTIONS TO VISIBILITY.  THE FOLLOWING
OBSERVATION LOCATIONS DO NOT REPORT PRESENT WEATHER...PROVINCETOWN...
SMITHFIELD...BLOCK ISLAND...KEENE...AND OXFORD.

MAZALL-231300-
EASTERN MASSACHUSETTS

CITY           SKY/WX    TMP DP  RH WIND       PRES   REMARKS
BOSTON         MOSUNNY   53  40  61 SW6       30.24R
6HR MIN TEMP:  50; 6HR MAX TEMP:  54;

BEVERLY        SUNNY     47  41  80 SW3       30.23R
LAWRENCE       SUNNY     47  40  76 S7        30.24R
BEDFORD        SUNNY     45  42  89 MISG      30.23R
BLUE HILL        N/A     48  38  68 W5        30.23R
NORWOOD        SUNNY     44  41  89 E3        30.25R
MARSHFIELD     NOT AVBL
PLYMOUTH       SUNNY     47  39  74 W7        30.25R
TAUNTON        SUNNY     46  41  82 CALM      30.25R
NEW BEDFORD    SUNNY     48  43  82 CALM      30.25R
$$

MAZALL-231300-
CAPE COD AND THE ISLANDS

CITY           SKY/WX    TMP DP  RH WIND       PRES   REMARKS
FALMOUTH       SUNNY     50  41  71 NW7       30.25R
HYANNIS        SUNNY     54  43  66 NW5       30.23R
CHATHAM        SUNNY     56  40  55 N7        30.24R
PROVINCETOWN   SUNNY     55  39  54 NW12      30.24R
NANTUCKET      SUNNY     57  42  57 N9        30.24R
MARTHAS VNYRD  SUNNY     54  42  64 N6        30.25R
$$

MAZALL-231300-
CENTRAL AND WESTERN MASSACHUSETTS

CITY           SKY/WX    TMP DP  RH WIND       PRES   REMARKS
WORCESTER      SUNNY     45  39  79 W7        30.24R
6HR MIN TEMP:  40; 6HR MAX TEMP:  46;

FITCHBURG      SUNNY     44  39  82 CALM      30.25R
ORANGE         SUNNY     45  41  86 S3        30.24R
SPRINGFIELD    SUNNY     41  40  97 CALM      30.25R
WESTFIELD      SUNNY     44  41  89 CALM      30.25R
NORTH ADAMS    SUNNY     40  38  93 CALM      30.27R
PITTSFIELD     SUNNY     46  40  79 W3        30.24R
$$

RIZALL-231300-
RHODE ISLAND

CITY           SKY/WX    TMP DP  RH WIND       PRES   REMARKS
PROVIDENCE     MOSUNNY   49  41  74 W5        30.27R
6HR MIN TEMP:  43; 6HR MAX TEMP:  49;

NEWPORT        SUNNY     54  43  66 W5        30.26R
BLOCK ISLAND   SUNNY     55  37  50 N7        30.26R
WESTERLY       SUNNY     48  42  80 CALM      30.28R
$$

CTZALL-231300-
CONNECTICUT

CITY           SKY/WX    TMP DP  RH WIND       PRES   REMARKS
BRADLEY INTL   MOSUNNY   50  41  71 W3        30.26R
6HR MIN TEMP:  44; 6HR MAX TEMP:  50;

HARTFORD       SUNNY     50  44  80 S3        30.27R
BRIDGEPORT     SUNNY     53  45  74 NW5       30.29R
DANBURY        SUNNY     46  42  86 CALM      30.30R
GROTON         SUNNY     50  45  83 N3        30.28R
NEW HAVEN      MOSUNNY   53  44  71 W6        30.29R
CHESTER        FAIR      48  43  81 W5        30.28R
MERIDEN        SUNNY     45  42  89 CALM      30.29R
WILLIMANTIC    FOG       41  39  93 CALM      30.28R VSB<1/4
OXFORD         MOSUNNY   45  37  76 CALM      30.30R
$$

MEZ002-015-021-024-NHZ003-005-008-011-012-014-VTZ005-008-231300-
NORTHERN NEW ENGLAND

CITY           SKY/WX    TMP DP  RH WIND       PRES   REMARKS
PORTLAND ME    SUNNY     47  37  68 SW6       30.19R
6HR MIN TEMP:  41; 6HR MAX TEMP:  47;

BANGOR ME      SUNNY     46  37  71 SW5       30.14R
CONCORD NH     SUNNY     49  39  68 N6        30.21R
MANCHESTER NH  SUNNY     49  37  63 CALM      30.21R
NASHUA NH      SUNNY     47  41  80 CALM      30.23R
PORTSMOUTH NH  SUNNY     49  40  72 S3        30.20R
JAFFREY NH     SUNNY     45  38  76 SE3       30.22R
KEENE NH       SUNNY     37  30  75 CALM      30.24R
BURLINGTON VT  PTSUNNY   49  40  71 S8        30.21R
MT. WASHINGTON NOT AVBL
$$

NYZ052-076-231300-
EASTERN NEW YORK

CITY           SKY/WX    TMP DP  RH WIND       PRES   REMARKS
ALBANY         MOSUNNY   49  43  80 SW6       30.28R
6HR MIN TEMP:  40; 6HR MAX TEMP:  49;

NEW YORK CITY  MOSUNNY   55  41  59 N7        30.29R
6HR MIN TEMP:  54; 6HR MAX TEMP:  56;

$$

ANZALL-231300-
MARINE OBSERVATIONS

STATION/POSITION TIME  TEMP    WIND        PRES    VSBY  WAVE
                       AIR SEA DIR/SP/G                  HT/PER
                 (UTC) (F)     (DEG/KT/KT) (MB)    (MI)  (FT/S)
BOSTON BUOY      1150   54 60  340/ 10/ 12 1024.1R         3/10
BUZZARDS BAY     1100          330/  9/ 11 1024.6R
NANTUCKET SOUND  1150   56 66  320/ 10/ 14 1023.9R         2/ 3
MASS BAY-STELLWA 1104   53 60  310/ 12/ 14   N/A    1 7/8
ISLE OF SHOALS   1200   51     260/  9/ 11 1022.7R
S OF BLOCK IS    1108      67                N/A           4/ 9
$$

......................KEY.........................
  SKY/WX - SKY CONDITION/PRESENT WEATHER
  TMP    - TEMPERATURE IN FAHRENHEIT
  DWPT   - DEWPOINT IN FAHRENHEIT
  RH     - RELATIVE HUMIDITY IN PERCENT
  WIND   - DIRECTION AND SPEED IN MPH
  PRES   - MEAN SEA LEVEL PRESSURE IN INCHES OF HG
  WCI    - WIND CHILL INDEX
  VSB    - VISIBILITY IN MILES
  HX     - HEAT INDEX
  TC     - TEMPERATURE IN CELSIUS
  VRB    - VARIABLE WIND DIRECTION
  N/A    - NOT AVAILABLE



USA.gov is the U.S. government's official web portal to all federal, state and local government web resources and services.